Regional Weather Roundup
Issued by NWS Kansas City/Pleasant Hill, MO

Home | Current Version | Previous Version | Graphics & Text | Print | Product List | Glossary Off
Versions: 1 2 3 4 5 6 7 8 9 10 11 12 13 14 15 16 17 18 19 20 21 22 23 24 25 26 27 28 29 30 31 32 33 34 35 36 37 38 39 40 41 42 43 44 45 46 47 48 49 50

000
ASUS43 KEAX 300010
RWREAX

WEATHER ROUNDUP FOR EASTERN KANSAS AND NORTHWEST MISSOURI
NATIONAL WEATHER SERVICE KANSAS CITY/PLEASANT HILL MO
600 PM CST THU JAN 29 2015

KSZ040-057-103>105-MOZ028-029-037-043-300100-
...KANSAS CITY METROPOLITAN AREA...

CITY           SKY/WX    TMP DP  RH WIND       PRES   REMARKS
K.C. INTL      PTCLDY    36  25  64 N10       30.45R WCI  28
6HR MIN TEMP:  36; 6HR MAX TEMP:  41;

K.C. DOWNTOWN  MOCLDY    39  25  57 N12       30.45R WCI  32
6HR MIN TEMP:  39; 6HR MAX TEMP:  45;

LEES SUMMIT    MOCLDY    38  25  59 NW13      30.44R WCI  30
6HR MIN TEMP:  38; 6HR MAX TEMP:  44;

OLATHE - IXD   CLEAR     37  25  61 N12       30.45R WCI  29
6HR MIN TEMP:  37; 6HR MAX TEMP:  44;

OLATHE - OJC   CLEAR     39  25  57 N13G21    30.43R WCI  31
6HR MIN TEMP:  39; 6HR MAX TEMP:  44;

LAWRENCE       CLEAR     37  25  61 N12       30.47R WCI  29

$$

MOZ001>008-011>017-020>025-030>033-038>040-044>046-053-054-300100-
...NORTHERN AND CENTRAL MISSOURI...

CITY           SKY/WX    TMP DP  RH WIND       PRES   REMARKS
ST. JOSEPH     PTCLDY    35  25  66 N14       30.47R WCI  26
6HR MIN TEMP:  35; 6HR MAX TEMP:  42;

MOSBY          CLOUDY    37  27  65 NW17G23   30.45R WCI  28
WHITEMAN AFB   MOCLDY    38  26  59 N13       30.42R WCI  31
6HR MIN TEMP:  38; 6HR MAX TEMP:  43;

CLINTON        PTCLDY    37  30  75 NW10      30.44R WCI  30
SEDALIA        CLOUDY    38  26  62 N18G25    30.43R WCI  28
6HR MIN TEMP:  38; 6HR MAX TEMP:  43;

WARSAW         NOT AVBL
MARSHALL       CLOUDY    41  28  60 NW12G25   30.41R WCI  34
CHILLICOTHE      N/A     37  26  64 NW15G23   30.44R WCI  28
6HR MIN TEMP:  37; 6HR MAX TEMP:  41;

MOBERLY        CLOUDY    37  25  60 NW12G25   30.39R WCI  30
KIRKSVILLE     CLOUDY    35  25  66 NW16G28   30.38R WCI  25
6HR MIN TEMP:  35; 6HR MAX TEMP:  37; 6HR PCP: TRACE;


$$

MOZ041-047>049-056>058-063>065-088>090-097-300100-
...EASTERN AND SOUTHERN MISSOURI...

CITY           SKY/WX    TMP DP  RH WIND       PRES   REMARKS
ST. LOUIS INTL CLOUDY    39  29  67 NW15      30.32R WCI  31
6HR MIN TEMP:  39; 6HR MAX TEMP:  43;

SPIRIT OF STL  CLOUDY    39  29  67 NW20G28   30.33R WCI  29
COLUMBIA       CLOUDY    39  28  64 NW18      30.37R WCI  30
JEFFERSON CITY CLOUDY    41  27  57 NW16      30.39R WCI  33
MEXICO         CLOUDY    37  32  81 NW20G28   30.36R WCI  27
HANNIBAL       CLOUDY    36  25  64 NW13G23   30.36R WCI  27
ROLLA          CLOUDY    38  27  64 NW18G28   30.34R WCI  28
LEBANON        MOCLDY    39  27  60 NW8       30.38R WCI  34
OSAGE BEACH    CLOUDY    41  25  52 NW13G22   30.39R WCI  34
SPRINGFIELD    PTCLDY    38  27  64 NW10      30.39R WCI  31
BRANSON        MOCLDY    39  28  65 NW17G24   30.39R WCI  30
NEVADA         CLEAR     37  28  70 NW8       30.47R WCI  31
JOPLIN         CLEAR     38  27  64 N8        30.45R WCI  32
WEST PLAINS    CLOUDY    40  27  59 NW13G21   30.36R WCI  32

$$

IAZ060-094-KSZ022-034>040-054-083-096-NEZ052-066-093-300100-
...KANSAS...SOUTHEAST NEBRASKA AND IOWA...

CITY           SKY/WX    TMP DP  RH WIND       PRES   REMARKS
TOPEKA         CLEAR     38  25  59 N8        30.48R WCI  32
6HR MIN TEMP:  38; 6HR MAX TEMP:  45;

MANHATTAN      CLEAR     41  26  55 N3        30.48R
EMPORIA        CLEAR     38  26  62 N9        30.47R WCI  31
CHANUTE        CLEAR     42  28  57 N9        30.47R
WICHITA        PTCLDY    46  25  43 N12       30.48R
OMAHA          MOCLDY    35  25  66 N12       30.47R WCI  27
LINCOLN        CLEAR     33  23  66 N6        30.49R WCI  28
FALLS CITY     CLEAR     34  23  64 N8        30.47R WCI  27
LAMONI         CLOUDY    32  22  66 NW15G23   30.43R WCI  22
DES MOINES     CLOUDY    32  21  64 NW21G30   30.42R WCI  20

$$



USA.gov is the U.S. government's official web portal to all federal, state and local government web resources and services.